Location: Suzhou
(31.3110°N, 120.6180°E)
Time: 13:49:45
(UTC+08:00)

FO-29 - Pass Details

Date: 22 April 2026
Orbit: 800 x 1320 km, 98.5° (Epoch: 15 May)

Event Time Altitude Azimuth Distance (km) Brightness Sun altitude
Rises 20:20:27 0° 8° (N) 4,118 13.1 -22.4°
Reaches altitude 10° 20:23:14 10° 6° (N) 3,085 12.4 -22.9°
Maximum altitude 20:30:09 65° 287° (WNW) 1,165 10.0 -24.1°
Drops below altitude 10° 20:36:12 10° 206° (SSW) 2,711 11.7 -25.2°
Sets 20:38:31 0° 203° (SSW) 3,588 12.4 -25.6°
